Location: Lydd
(50.9500°N, 0.9167°E)
Time: 15:14:25
(UTC+00:00)

Daily predictions for brighter satellites

Satellite Brightness Start Highest point End
(mag) Time Altitude Azimuth Time Altitude Azimuth Time Altitude Azimuth
Cosmos 1707 Rocket 4.2 20:56:00 10° SSW 21:00:22 61° WNW 21:04:46 10° N
MOS 1 Rocket 3.6 20:56:02 10° SSE 21:01:19 76° ENE 21:06:22 10° N
Cosmos 2360 Rocket 4.1 20:57:32 10° NW 21:02:03 25° WSW 21:06:32 10° SSW
Cosmos 1953 2.2 21:01:01 10° N 21:04:52 82° E 21:08:39 10° SSE
COSMOS 2428 2.9 21:00:56 10° NNW 21:06:39 79° WSW 21:12:22 10° SSE
USA 234 4.2 21:01:49 10° ENE 21:07:03 25° SE 21:12:14 10° S
SPOT 5 3.8 21:07:21 10° S 21:11:30 41° W 21:15:53 10° NNW
BREEZE-M DEB (TANK) 2.7 21:13:21 10° WSW 21:15:46 67° SSE 21:21:02 10° E
USA 281 4.5 21:11:18 10° ESE 21:17:00 33° NE 21:22:43 10° NNW
BlueWalker 3 2.0 21:18:11 10° WSW 21:21:57 78° NNW 21:25:42 10° ENE
ERS-1 Rocket 3.7 21:22:55 10° S 21:27:47 50° W 21:32:40 10° NNW
Cosmos 1315 Rocket 3.3 21:24:20 10° SSW 21:28:17 61° WNW 21:32:16 10° N
NOSS 8 (E) 4.3 21:24:38 10° SW 21:28:30 84° SE 21:31:35 10° NE
SL-4 R/B 3.5 21:26:12 10° W 21:29:16 23° SW 21:32:19 11° SSE
SL-08 R/B 4.5 21:27:19 10° S 21:33:24 85° E 21:39:33 10° N
Cosmos 2084 Rocket 3.7 21:30:04 10° SSW 21:34:10 45° SE 21:38:08 10° NE
Cosmos 773 Rocket 4.0 21:29:02 10° NNW 21:34:13 76° ENE 21:39:00 12° SSE
Cosmos 1908 Rocket 4.0 21:30:40 10° NNW 21:34:55 59° W 21:39:10 10° S
Cosmos 1408 2.8 21:32:50 13° SSE 21:35:10 35° E 21:37:57 10° NNE
BREEZE-M DEB (TANK) 4.1 21:33:59 10° WSW 21:38:28 79° SSE 21:57:40 10° E
Cosmos 1782 Rocket 3.5 21:34:43 10° N 21:39:05 83° E 21:43:07 12° SSE
Cosmos 2242 Rocket 4.3 21:35:52 11° SSE 21:39:52 41° E 21:44:10 10° NNE
BREEZE-M DEB (TANK) 4.0 21:38:53 10° WSW 21:40:28 16° SSW 21:41:58 13° SSE
Cosmos 1300 Rocket 3.5 21:38:22 10° N 21:42:42 76° ENE 21:46:34 13° SSE
Cosmos 1709 Rocket 4.4 21:38:03 11° SSE 21:43:58 48° E 21:49:59 10° NNE
SL-16 R/B 3.3 21:38:57 10° NNW 21:44:13 36° NE 21:49:27 10° ESE
Cosmos 2237 Rocket 2.2 21:39:35 10° NNW 21:45:17 88° ENE 21:50:16 14° SSE
Cosmos 2227 Rocket 3.1 21:47:45 12° SSE 21:52:09 31° ESE 21:57:05 10° NE
SJ 16-02 4.0 21:54:36 10° WSW 21:57:58 21° NW 22:01:20 10° N
Cosmos 1455 3.9 21:55:36 10° NW 21:58:31 25° W 22:01:27 10° SSW
H-2A R/B 4.0 21:56:06 11° ESE 21:59:28 26° ENE 22:02:56 10° N
Cosmos 1980 3.8 21:54:19 10° NNW 21:59:58 71° WSW 22:04:42 15° SSE
EXPRESS MD2 2.8 21:58:40 10° W 22:00:53 31° SSW 22:01:34 25° SSE
GP-B 3.1 21:58:31 10° N 22:02:57 86° E 22:06:49 14° S
Landsat 5 3.5 21:59:23 10° NNE 22:03:34 88° W 22:07:50 10° SSW
Meteor 2-5 Rocket 4.1 21:59:20 14° SSE 22:04:13 50° E 22:09:46 10° NNE
Cosmos 1777 Rocket 4.2 22:01:02 10° S 22:06:10 57° ESE 22:11:21 10° NNE
ARIANE 5 R/B 3.0 22:03:45 16° SE 22:07:02 53° ENE 22:11:20 10° N
Cosmos 1825 3.8 22:06:40 14° ESE 22:08:07 17° E 22:10:25 10° NE
COSMOS 2455 3.0 22:02:05 10° SW 22:08:08 80° NW 22:14:13 10° NE
SeaSat 1 3.2 22:04:02 13° S 22:08:10 42° WSW 22:12:51 10° NW
Cosmos 1174 4.4 22:03:36 10° NW 22:08:20 53° WSW 22:11:05 18° SSE
Cosmos 2297 Rocket 2.2 22:05:10 10° SSW 22:10:47 74° ESE 22:16:27 10° NNE
Cosmos 1703 3.1 22:10:39 17° S 22:13:18 64° E 22:16:57 10° NNE
MetOp-A 4.5 22:09:42 13° S 22:14:20 58° W 22:19:24 10° NNW
Cosmos 1503 Rocket 4.0 22:12:30 10° SSW 22:17:49 81° ESE 22:23:07 10° NNE
Orbus 7S? 4.4 22:24:05 10° NW 22:26:53 31° NNE 22:29:22 10° E
Cosmos 1461 4.3 22:26:32 17° SE 22:27:10 18° ESE 22:29:50 10° ENE
Cosmos 2219 4.0 22:23:58 18° SSE 22:27:17 32° ESE 22:32:13 10° NE
Cosmos 1818 4.0 22:22:23 10° NW 22:27:50 59° NE 22:32:53 12° ESE
CENTAUR R/B 2.7 22:22:29 10° SSW 22:27:58 51° ESE 22:34:44 10° NE
Cosmos 371 Rocket 3.8 22:23:19 10° SW 22:28:05 61° WNW 22:32:54 10° NNE
Cosmos 2263 Rocket 3.4 22:27:07 17° SE 22:29:52 25° ESE 22:34:19 10° NE
Cosmos 1745 Rocket 4.5 22:24:17 10° SSW 22:30:36 63° WNW 22:36:56 10° N
Cosmos 2151 Rocket 3.7 22:26:35 10° N 22:30:58 63° ENE 22:33:48 21° SSE
Cosmos 1892 3.3 22:31:14 23° SE 22:32:50 35° E 22:36:06 10° NNE
Terra 4.2 22:31:17 10° SW 22:34:03 15° W 22:36:52 10° NW
Okean 2 Rocket 3.3 22:30:55 10° N 22:35:24 64° ENE 22:38:18 21° SSE
Meteor 1-24 Rocket 3.7 22:32:43 14° S 22:37:34 86° E 22:43:04 10° NNE
CZ-4C R/B 2.7 22:33:49 10° WSW 22:38:31 59° NW 22:44:31 10° NE
ALOS 2 3.1 22:46:36 20° SE 22:49:26 51° ENE 22:53:43 10° N
Cosmos 405 Rocket 3.2 22:46:07 10° NNW 22:49:48 50° W 22:51:59 22° SSW
USA 234 3.2 22:44:16 10° ENE 22:50:49 72° SE 22:57:21 10° SW
H-2A R/B 4.0 22:53:04 10° NE 22:55:22 14° E 22:57:02 12° ESE
PSLV R/B 3.8 22:51:48 10° NNE 22:55:49 85° ESE 22:58:16 22° SSW
BlueWalker 3 2.4 22:56:37 10° WNW 23:00:20 61° N 23:04:03 10° E
MINOTAUR 4 R/B 3.4 22:58:00 10° NNE 23:00:55 83° WNW 23:02:07 31° SSW
USA 281 3.3 22:56:14 20° SSE 23:01:03 75° WSW 23:07:40 10° NNW
SOZ 4.5 22:59:31 10° WNW 23:02:09 83° N 23:04:57 10° E
Cosmos 2074 Rocket 4.1 22:58:51 21° S 23:03:07 64° E 23:09:17 10° NNE
Cosmos 2181 Rocket 4.1 22:58:46 10° NNW 23:04:54 72° W 23:09:14 20° S
CZ-2C R/B 4.1 23:01:04 10° N 23:05:27 60° WNW 23:09:05 15° SSW
Aureole 1 Rocket 3.7 23:05:07 25° SSE 23:07:08 44° ESE 23:12:02 10° NNE
Cosmos 990 Rocket 3.9 23:04:48 20° SSW 23:08:25 75° ESE 23:13:35 10° NNE
Cosmos 2221 Rocket 3.5 23:07:37 23° S 23:10:21 89° E 23:14:48 10° N
Cosmos 1328 4.0 23:09:17 28° SSE 23:11:05 56° E 23:14:54 10° NNE
Okean 1 Rocket 3.0 23:07:13 10° N 23:11:38 87° W 23:14:06 26° S
Sich 1 Rocket 4.0 23:10:23 10° NNW 23:14:40 55° W 23:17:10 23° SSW
Cosmos 1680 Rocket 3.9 23:19:16 10° NNW 23:24:25 59° ENE 23:28:15 18° SE
Cosmos 1025 Rocket 3.1 23:23:54 27° SSE 23:26:04 62° E 23:30:19 10° NNE
SL-16 R/B 2.6 23:23:01 10° NW 23:28:32 51° WSW 23:31:51 23° S
Cosmos 2237 Rocket 4.1 23:24:55 10° WNW 23:28:34 18° W 23:32:05 10° SW
Cosmos 372 Rocket 4.4 23:26:38 24° SSE 23:29:26 48° ESE 23:34:25 10° NNE
Cosmos 2112 Rocket 4.4 23:25:39 10° NNW 23:30:46 57° ENE 23:34:40 17° SE
Cosmos 1606 4.1 23:30:35 10° N 23:33:44 28° ENE 23:35:42 17° ESE
Cosmos 1975 Rocket 3.9 23:31:37 24° SE 23:33:46 40° E 23:37:55 10° NNE
Cosmos 1943 3.4 23:28:26 10° NNW 23:34:04 69° ENE 23:38:27 17° SE
H-2A R/B 3.3 23:32:04 23° SSW 23:34:14 39° W 23:38:10 10° NNW
Cosmos 2227 Rocket 2.9 23:30:23 10° SW 23:35:56 54° NW 23:41:31 10° NNE
Nadezhda 3 Rocket 4.0 23:33:08 10° NNW 23:39:23 81° W 23:43:26 23° S
Cosmos 1455 Rocket 3.1 23:35:19 10° N 23:39:48 80° E 23:42:11 27° SSE
Cosmos 2082 3.7 23:36:07 22° SSW 23:39:52 73° ESE 23:45:29 10° NNE
NOSS 3-2 (A) 3.2 23:35:54 12° SW 23:40:48 88° SE 23:47:13 10° NE
Cosmos 1825 3.1 23:40:07 20° SW 23:42:01 36° WNW 23:45:13 10° N
BREEZE-M DEB (TANK) 3.3 23:40:58 10° WSW 23:43:41 69° S 23:50:11 10° E
ARIANE 5 R/B 4.5 23:41:12 13° SW 23:43:46 20° W 23:47:00 10° NW
NOSS 3-2 (C) 3.4 23:49:29 24° SSW 23:52:40 56° SE 23:58:47 10° NE
Cosmos 2228 4.3 23:49:03 10° N 23:52:59 33° ENE 23:55:54 16° SE
